Simultaneous Nadir Overpasses (SNOs) Predictions

Prediction of SNOs between METOP-A and TERRA Satellite Orbit:

Table of predicted SNOs for the next 14.0 days since TLE Epoch: 11/12/2011
Index Date Time (METOP-A) METOP-A Lat,Lon TERRA Lat,Lon Distance(km) Time Diff (sec)
1 11/14/2011 07:59:35 81.21, 106.43 81.22, 106.62 3.14 56
2 11/14/2011 08:50:15 -81.22, -85.78 -81.21, -85.90 2.25 17
3 11/17/2011 03:33:58 81.22, 173.00 81.21, 172.91 1.62 45
4 11/17/2011 04:24:38 -81.22, -19.23 -81.22, -19.21 0.31 29
5 11/19/2011 23:08:20 81.22,-120.22 81.23,-120.35 2.15 33
6 11/19/2011 23:59:01 -81.22, 47.15 -81.22, 47.17 0.47 41
7 11/22/2011 18:42:42 81.22, -54.01 81.23, -53.91 1.80 20
8 11/22/2011 19:33:22 -81.23, 113.75 -81.22, 113.63 2.13 53
9 11/25/2011 14:17:04 81.22, 12.42 81.23, 12.60 3.13 7




NCC Satellite Simultaneous Nadir Overpasses (SNOs) Prediction Service
